www.pogodaiklimat.ru

Погода и климат >> Архив погоды >> Австрия >> Мондзе


ПОГОДА в Мондзе

  • Прогноз погоды в Мондзе
  • Монитор погоды в Мондзе

АРХИВ ПОГОДЫ в Мондзе

Время (UTC), дата Ветер
(напр.,м/с)
 
Видим.   Явления Облачность Т
(С)
Тd
(С)
f
(%)
Тe
(С)
Тes
(С)
Комфортность P
(гПа)
Po
(гПа)
Тmin
(С)
Tmax
(С)
R
(мм)
R24
(мм)
S
(см)
07 13.09 ЮВ 1 н/о н/о +16.4 +12.3 77 +17 +17 1032.0 975.5
08 13.09 ЮВ 1 н/о н/о +18.2 +13.1 72 +20 +20 1031.8 975.7
09 13.09 ЮВ 1 н/о н/о +20.3 +13.8 66 +24 +24 комфорт 1031.2 975.5
10 13.09 ЮВ 1 н/о н/о +22.2 +13.2 57 +25 +25 комфорт 1030.2 974.9
11 13.09 Ю 1 н/о н/о +23.4 +12.4 50 +26 +26 жарко 1029.9 974.8
12 13.09 С 3 н/о н/о +24.3 +12.7 48 +26 +26 жарко 1029.6 974.7
13 13.09 СЗ 3 н/о н/о +24.2 +13.3 51 +26 +26 жарко 1029.6 974.7
14 13.09 С 3 н/о н/о +24.8 +13.5 49 +27 +27 жарко 1029.1 974.4
15 13.09 СЗ 2 н/о н/о +24.2 +13.1 50 +26 +26 жарко 1029.0 974.1
16 13.09 С 2 н/о н/о +23.1 +13.5 55 +26 +26 жарко 1029.0 974.0
17 13.09 СЗ 1 н/о н/о +20.5 +14.6 69 +24 +24 комфорт 1029.5 974.0
18 13.09 СЗ 1 н/о н/о +18.0 +14.1 78 +19 +19 1030.3 974.3 +12.6 +24.8
19 13.09 СЗ 1 н/о н/о +16.4 +13.9 85 +17 +17 1031.2 974.8
20 13.09 СЗ 1 н/о н/о +15.7 +13.8 88 +16 +16 1031.4 974.9
21 13.09 штиль 0 н/о н/о +15.3 +13.5 89 +15 +15 1032.1 975.4
22 13.09 штиль 0 н/о н/о +15.2 +13.7 91 +15 +15 1032.0 975.3
23 13.09 З 1 н/о н/о +15.0 +13.4 90 +15 +15 1031.5 974.8
00 14.09 штиль 0 н/о н/о +15.0 +13.7 92 +15 +15 1031.5 974.8
01 14.09 З 1 н/о н/о +15.1 +13.6 91 +16 +16 1031.1 974.5
02 14.09 С 1 н/о н/о +14.6 +13.2 91 +15 +15 1030.9 974.2
03 14.09 С 1 н/о н/о +13.9 +12.8 93 +14 +14 1031.1 974.2
04 14.09 штиль 0 н/о н/о +13.4 +12.4 94 +13 +13 1031.4 974.4
05 14.09 СЗ 1 н/о н/о +13.3 +12.3 94 +13 +13 1031.4 974.4
06 14.09 штиль 0 н/о н/о +14.5 +13.3 93 +14 +14 1031.2 974.4 +13.2 +18.1
07 14.09 СЗ 1 н/о н/о +17.7 +13.9 78 +19 +19 1030.6 974.5
08 14.09 ЮВ 1 н/о н/о +19.2 +14.3 73 +22 +22 комфорт 1030.2 974.4
09 14.09 ЮВ 2 н/о н/о +19.7 +15.0 74 +22 +22 комфорт 1030.2 974.5
10 14.09 В 2 н/о н/о +20.8 +14.6 68 +24 +24 комфорт 1029.7 974.2
11 14.09 ЮВ 1 н/о н/о +21.5 +14.6 65 +25 +25 комфорт 1028.8 973.5
12 14.09 В 1 н/о н/о +22.0 +15.0 64 +25 +25 комфорт 1028.2 973.0
13 14.09 В 2 н/о н/о +22.6 +15.0 62 +26 +26 жарко 1027.6 972.6
14 14.09 СВ 2 н/о н/о +21.5 +14.0 62 +24 +24 комфорт 1027.6 972.4
15 14.09 СВ 2 н/о н/о +21.7 +13.5 60 +24 +24 комфорт 1027.3 972.1
16 14.09 СВ 2 н/о н/о +21.0 +13.8 63 +24 +24 комфорт 1027.4 972.1
17 14.09 СВ 1 н/о н/о +19.7 +13.3 67 +23 +23 комфорт 1027.5 971.9
18 14.09 З 1 н/о н/о +16.9 +13.8 82 +18 +18 1028.2 972.1 +14.3 +22.6
19 14.09 СЗ 1 н/о н/о +16.6 +13.6 82 +17 +17 1028.6 972.4
20 14.09 ЮЗ 1 н/о н/о +16.1 +13.4 84 +17 +17 1028.8 972.5
21 14.09 СЗ 1 н/о н/о +15.0 +12.8 87 +15 +15 1029.0 972.4
22 14.09 С 1 н/о н/о +13.9 +12.1 89 +14 +14 1029.2 972.4
23 14.09 С 1 н/о н/о +13.2 +11.7 91 +13 +13 1029.0 972.1
00 15.09 СЗ 1 н/о н/о +12.6 +11.3 92 +13 +13 1028.6 971.6
01 15.09 СЗ 1 н/о н/о +12.1 +10.9 92 +12 +12 1028.5 971.4
02 15.09 СЗ 1 н/о н/о +12.3 +11.2 93 +12 +12 1027.7 970.7
03 15.09 СЗ 2 н/о н/о +12.0 +10.8 92 +11 +11 1027.3 970.2
04 15.09 СЗ 1 н/о н/о +12.4 +11.3 93 +12 +12 1027.1 970.1
05 15.09 штиль 0 н/о н/о +13.4 +12.4 94 +13 +13 1026.7 970.0
06 15.09 С 1 н/о н/о +14.4 +13.1 92 +15 +15 1026.5 970.0 +11.9 +17.3
07 15.09 Ю 2 н/о н/о +15.7 +13.7 88 +16 +16 1026.4 970.1
08 15.09 Ю 1 н/о н/о +17.4 +14.1 81 +18 +18 1025.8 969.9
09 15.09 ЮВ 1 н/о н/о +18.3 +14.4 78 +20 +20 1025.0 969.3
10 15.09 Ю 1 н/о н/о +20.5 +15.8 74 +25 +25 комфорт 1024.2 969.0
11 15.09 ЮВ 2 н/о н/о +21.1 +16.4 75 +25 +25 комфорт 1023.5 968.5
12 15.09 ЮВ 2 н/о н/о +22.8 +16.8 69 +28 +28 душно 1022.7 968.0
13 15.09 Ю 1 н/о н/о +24.6 +16.4 60 +28 +28 душно 1021.8 967.5
14 15.09 СЗ 1 н/о н/о +25.8 +15.1 52 +29 +29 душно 1021.0 966.9
15 15.09 З 1 н/о н/о +25.5 +15.7 55 +29 +29 душно 1020.5 966.4
16 15.09 З 2 н/о н/о +24.1 +15.9 60 +27 +27 жарко 1020.1 965.8
17 15.09 штиль 0 н/о н/о +21.5 +16.6 74 +25 +25 комфорт 1020.5 965.7
18 15.09 С 1 н/о н/о +19.0 +15.9 82 +21 +21 комфорт 1021.2 965.9 +14.3 +26.0
19 15.09 СЗ 1 н/о н/о +17.3 +15.0 86 +18 +18 1021.9 966.2
20 15.09 С 1 н/о н/о +16.2 +14.6 90 +17 +17 1022.3 966.4
21 15.09 СЗ 1 н/о н/о +15.4 +14.1 92 +16 +16 1022.4 966.3
22 15.09 СЗ 1 н/о н/о +14.9 +13.7 93 +15 +15 1022.6 966.4
23 15.09 СЗ 1 н/о н/о +14.5 +13.4 93 +15 +15 1022.7 966.4
00 16.09 СЗ 1 н/о н/о +14.0 +13.0 94 +14 +14 1022.6 966.2
01 16.09 штиль 0 н/о н/о +13.8 +12.8 94 +13 +13 1022.1 965.7
02 16.09 С 1 н/о н/о +13.7 +12.7 94 +14 +14 1022.0 965.6 0.0
03 16.09 штиль 0 н/о н/о +13.3 +12.4 94 +13 +13 1021.9 965.4 0.0
04 16.09 З 1 н/о н/о +13.3 +12.5 95 +13 +13 1021.6 965.1 0.0
05 16.09 штиль 0 н/о н/о +13.3 +12.5 95 +13 +13 1021.6 965.1 0.0
06 16.09 С 1 н/о н/о +14.3 +13.3 94 +15 +15 1021.0 964.8 +13.1 +19.1 0.0
07 16.09 ЮВ 1 н/о н/о +18.0 +14.7 81 +19 +19 1020.6 965.1
08 16.09 В 1 н/о н/о +19.3 +15.2 77 +22 +22 комфорт 1020.3 965.1
09 16.09 ЮВ 2 н/о н/о +20.8 +15.8 73 +25 +25 комфорт 1019.7 964.8
10 16.09 В 2 н/о н/о +22.1 +15.3 65 +26 +26 душно 1019.0 964.4
11 16.09 З 2 н/о н/о +24.9 +14.7 53 +28 +28 жарко 1017.8 963.7 0.0
12 16.09 З 3 н/о н/о +24.8 +14.8 54 +28 +28 жарко 1017.0 962.9 0.0
13 16.09 З 2 н/о н/о +25.9 +15.5 53 +29 +29 душно 1015.9 962.1
14 16.09 З 3 н/о н/о +26.3 +15.1 50 +29 +29 жарко 1015.5 961.8
15 16.09 СЗ 2 н/о н/о +24.8 +16.0 58 +28 +28 жарко 1015.6 961.6
16 16.09 СЗ 1 н/о н/о +24.3 +16.0 60 +28 +28 душно 1015.4 961.4 0.0
17 16.09 СЗ 1 н/о н/о +21.9 +16.4 71 +26 +26 душно 1015.6 961.1
18 16.09 штиль 0 н/о н/о +20.4 +16.4 78 +23 +23 комфорт 1016.2 961.4 +14.1 +26.8 0.0
19 16.09 штиль 0 н/о н/о +19.1 +16.6 85 +21 +21 комфорт 1016.6 961.6 0.0
20 16.09 Ю 1 н/о н/о +18.7 +16.5 87 +21 +21 комфорт 1016.7 961.6
21 16.09 СВ 1 н/о ливневой дождь н/о +18.7 +17.0 90 +21 +21 комфорт 1016.9 961.8 1
22 16.09 С 1 н/о в посл. час осадки н/о +17.1 +15.4 90 +18 +18 1017.6 962.1 4
23 16.09 СЗ 1 н/о н/о +16.8 +15.7 93 +18 +18 1017.5 962.0 0.0
00 17.09 ЮЗ 1 н/о в посл. час осадки {ливн. осадки} н/о +16.8 +15.7 93 +18 +18 1017.1 961.6 5
01 17.09 штиль 0 н/о н/о +16.8 +15.8 94 +17 +17 1016.8 961.3 0.0
02 17.09 штиль 0 н/о н/о +16.8 +15.7 93 +17 +17 1016.9 961.4
03 17.09 Ю 1 н/о н/о +16.4 +15.3 93 +17 +17 1017.0 961.4 0.0
04 17.09 штиль 0 н/о н/о +15.7 +14.8 94 +15 +15 1017.5 961.8
05 17.09 З 1 н/о н/о +14.9 +13.9 94 +15 +15 1017.9 962.0
06 17.09 штиль 0 н/о н/о +15.0 +14.1 94 +15 +15 1018.1 962.2 +14.8 +20.6 5
07 17.09 штиль 0 н/о н/о +15.7 +14.1 90 +15 +15 1017.8 962.0
08 17.09 З 1 н/о н/о +16.8 +14.3 85 +18 +18 1017.6 962.0 0.0
09 17.09 ЮЗ 1 н/о н/о +17.8 +14.6 82 +19 +19 1017.4 962.0 0.0
10 17.09 З 3 н/о н/о +18.7 +14.0 74 +20 +20 1017.2 962.0
11 17.09 З 1 н/о н/о +21.0 +12.2 57 +24 +24 комфорт 1016.4 961.6
12 17.09 С 3 н/о н/о +22.0 +12.9 56 +25 +25 комфорт 1015.8 961.3 0.0
13 17.09 З 4 н/о н/о +21.8 +12.8 57 +24 +24 комфорт 1015.4 960.8
14 17.09 С 3 н/о н/о +21.3 +13.3 60 +24 +24 комфорт 1015.1 960.5
15 17.09 С 4 н/о н/о +19.6 +12.9 65 +21 +21 комфорт 1015.9 960.9
16 17.09 СЗ 2 н/о н/о +18.9 +12.5 66 +20 +20 1016.1 961.0
17 17.09 З 1 н/о н/о +18.0 +13.2 74 +19 +19 1016.5 961.2
18 17.09 З 1 н/о н/о +17.6 +12.8 73 +19 +19 1017.2 961.8 +15.0 +22.3 0.0
19 17.09 З 2 н/о н/о +17.5 +12.4 72 +18 +18 1017.8 962.3
20 17.09 СЗ 3 н/о н/о +16.8 +11.3 70 +17 +17 1019.1 963.4
21 17.09 З 1 н/о н/о +15.8 +10.7 72 +17 +17 1019.7 963.8
22 17.09 СЗ 1 н/о н/о +14.9 +9.5 70 +15 +15 1020.1 964.0
23 17.09 СЗ 2 н/о н/о +15.1 +9.4 69 +15 +15 1020.5 964.4
00 18.09 СЗ 1 н/о н/о +14.5 +8.3 66 +15 +15 1021.0 964.7
01 18.09 СЗ 2 н/о н/о +13.9 +7.6 66 +13 +13 1021.3 964.9
02 18.09 СЗ 1 н/о н/о +13.1 +7.0 66 +13 +13 1022.1 965.5
03 18.09 З 1 н/о н/о +12.3 +6.5 68 +12 +12 1022.8 966.0
04 18.09 СЗ 1 н/о н/о +11.5 +6.8 73 +11 +11 1023.4 966.4
05 18.09 СВ 1 н/о н/о +11.2 +6.4 72 +11 +11 1023.7 966.6
06 18.09 С 2 н/о н/о +11.5 +6.0 69 +11 +11 1024.0 966.9 +10.8 +17.6
07 18.09 З 1 н/о н/о +12.6 +5.7 63 +13 +13 1024.3 967.4
08 18.09 В 1 н/о н/о +13.9 +5.8 58 +14 +14 1024.1 967.5
09 18.09 ЮВ 1 н/о н/о +15.1 +6.9 58 +16 +16 1023.6 967.3
10 18.09 С 2 н/о н/о +15.7 +6.4 54 +16 +16 1023.6 967.4
11 18.09 СЗ 1 н/о н/о +16.1 +6.2 52 +17 +17 1023.0 966.9
12 18.09 СЗ 1 н/о н/о +16.9 +5.8 48 +18 +18 1022.4 966.5
13 18.09 СЗ 2 н/о н/о +16.8 +5.3 47 +17 +17 1022.3 966.3
14 18.09 СЗ 2 н/о н/о +17.5 +5.6 45 +18 +18 1021.8 966.0
15 18.09 СЗ 2 н/о н/о +16.6 +5.4 47 +17 +17 1021.7 965.7
16 18.09 СЗ 2 н/о н/о +15.0 +5.1 52 +15 +15 1022.0 965.7
17 18.09 СЗ 1 н/о н/о +13.0 +5.8 62 +13 +13 1022.7 966.0
18 18.09 С 1 н/о н/о +11.0 +5.5 69 +11 +11 1024.0 966.8 +11.0 +17.7
19 18.09 СЗ 1 н/о н/о +9.9 +5.6 75 +10 +10 1024.9 967.5
20 18.09 З 1 н/о н/о +8.3 +5.0 80 +8 +8 1025.6 967.8
21 18.09 СЗ 1 н/о н/о +7.3 +3.8 78 +7 +7 1026.0 968.0
22 18.09 СЗ 1 н/о н/о +6.5 +3.7 82 +6 +6 1026.4 968.2
23 18.09 СЗ 1 н/о н/о +6.1 +4.0 86 +5 +5 1026.8 968.5
00 19.09 СЗ 1 н/о н/о +5.7 +3.8 88 +4 +4 1026.9 968.5
01 19.09 СЗ 1 н/о н/о +5.3 +3.5 88 +4 +4 1026.7 968.2
02 19.09 С 2 н/о н/о +4.8 +3.1 89 +2 +2 1026.6 968.0
03 19.09 СЗ 1 н/о н/о +4.7 +3.0 89 +3 +3 1027.0 968.4
04 19.09 С 1 н/о н/о +4.7 +3.1 89 +3 +3 1027.0 968.4
05 19.09 СЗ 1 н/о н/о +4.7 +3.3 91 +3 +3 1027.3 968.7
06 19.09 СЗ 1 н/о н/о +6.0 +3.7 85 +5 +5 1027.6 969.2 +4.6 +11.3
07 19.09 штиль 0 н/о н/о +8.8 +4.4 74 +8 +8 1027.5 969.7
08 19.09 Ю 1 н/о н/о +11.2 +5.9 70 +11 +11 1027.4 970.1
09 19.09 штиль 0 н/о н/о +12.9 +5.3 60 +13 +13 1026.9 969.9
10 19.09 Ю 1 н/о н/о +14.4 +5.5 55 +15 +15 1026.2 969.6
11 19.09 С 1 н/о н/о +14.5 +4.2 50 +15 +15 1026.3 969.7
12 19.09 СЗ 1 н/о н/о +16.1 +3.2 42 +17 +17 1025.8 969.5
13 19.09 СЗ 3 н/о н/о +16.3 +4.3 45 +16 +16 1025.9 969.6
14 19.09 СЗ 2 н/о н/о +15.7 +3.4 44 +16 +16 1025.9 969.5
15 19.09 СЗ 1 н/о н/о +15.0 +3.7 47 +16 +16 1026.0 969.5
16 19.09 СЗ 2 н/о н/о +14.4 +3.7 49 +14 +14 1026.3 969.6
17 19.09 С 1 н/о н/о +11.8 +4.9 63 +12 +12 1027.1 969.9
18 19.09 СЗ 1 н/о н/о +10.1 +4.1 66 +10 +10 1027.8 970.2 +5.6 +16.6
19 19.09 СЗ 1 н/о н/о +8.4 +4.3 75 +8 +8 1028.9 970.9
20 19.09 С 2 н/о н/о +7.5 +4.1 79 +6 +6 1030.0 971.8
21 19.09 СЗ 1 н/о н/о +6.8 +4.2 83 +6 +6 1029.9 971.6
22 19.09 С 1 н/о н/о +6.0 +3.6 85 +5 +5 1030.3 971.8
23 19.09 С 1 н/о н/о +5.5 +3.3 86 +4 +4 1030.4 971.8
00 20.09 СЗ 1 н/о н/о +5.1 +3.6 90 +4 +4 1030.3 971.6
01 20.09 СЗ 1 н/о н/о +4.8 +3.3 90 +3 +3 1030.2 971.4
02 20.09 СЗ 1 н/о н/о +4.4 +2.8 89 +3 +3 1029.9 971.1
03 20.09 СЗ 1 н/о н/о +4.0 +2.4 89 +3 +3 1029.8 970.9
04 20.09 С 1 н/о н/о +3.8 +2.3 90 +2 +2 1029.8 970.8
05 20.09 СЗ 1 н/о н/о +3.7 +2.3 91 +2 +2 1029.9 970.9
06 20.09 СЗ 1 н/о н/о +5.1 +3.5 89 +4 +4 1029.8 971.1 +3.5 +10.3

 

Местоположение метеостанции Мондзе (Австрия): широта 47.85 долгота 13.37 высота над уровнем моря 491 м.

В архиве по умолчанию представлена погода в Мондзе за последнюю неделю. Архивные данные за месяц целиком и за предыдущие месяцы, начиная с января 2011 года, Вы можете получить, выбрав интересующий диапазон дат из раскрывающегося списка и нажав кнопку "Ввод!".


*Определитесь, кто Вы:
робот инопланетянин человек

Внимание! Время в таблицах - всемирное. Для получения местного времени необходимо прибавить поправку, которая равна 1 ч.

Смотрите также архив погоды в соседних городах и на ближайших метеорологических станциях:

Погода в Санкт-Вольфганге (Австрия) (15 км)
Погода в Франкенмаркте (Австрия) (16 км)
Погода в Маттзе (Австрия) (25 км)
Погода в Зальцбурге университет (Австрия) (25 км)
Погода в Фойеркогеле (Австрия) (26 км)
Погода в Зальцбурге (Австрия) (28 км)
Погода в Бад-Гойзерне (Австрия) (31 км)
Погода в Гмундене (Австрия) (33 км)
Погода в Вольфсегг-ам-Хаусрукке (Австрия) (36 км)
Погода в Бад-Аусзе (Австрия) (40 км)

Пояснения к столбцам:

Ветер - указаны скорость ветра в м/с - средняя за 10 мин, порывы в срок и между сроками (в фигурных скобках) и направление, откуда дует ветер: С - северный, СВ - северо-восточный, В - восточный, ЮВ - юго-восточный, Ю - южный, ЮЗ - юго-западный, З - западный, СЗ - северо-западный.
Видимость - горизонтальная дальность видимости в метрах или километрах. При видимости от 1 до 10 км при отсутствии осадков обычно наблюдается дымка, при ухудшении видимости до 1 км и менее - туман. В сухую погоду видимость может ухудшаться дымом, пылью или мглою.
Явления - указаны атмосферные явления, наблюдавшиеся в срок или в последний час перед сроком; фигурными скобками обозначены явления, наблюдавшиеся между сроками (за 1-3 часа до срока); квадратными скобками обозначены град или гололедные отложения с указанием их диаметра в мм.
Облачность - указаны через наклонную черту общая и нижняя облачность в баллах и высота нижней границы облаков в метрах; квадратными скобками обозначены формы облаков: Ci - перистые, Cs - перисто-слоистые, Cc - перисто-кучевые, Ac - высококучевые, As - высокослоистые, Sc - слоисто-кучевые, Ns - слоисто-дождевые, Cu - кучевые, Cb - кучево-дождевые. Подробнее классификацию облаков см. в Атласе облаков (PDF).
T - Температура воздуха - температура, измеренная на высоте 2 м над землей.
Td - Температура точки росы - температура, при понижении до которой содержащийся в воздухе водяной пар достигнет насыщения.
f - Относительная влажность воздуха - влажноcть воздуха, измеренная на высоте 2 м над землей.
Te - Эффективная температура - температура, которую ощущает одетый по сезону человек в тени. Характеристика душности погоды. При расчете учитывается влияние влажности воздуха и скорости ветра на теплоощущения человека.
Tes - Эффективная температура на солнце - температура, которую ощущает человек, с поправкой на солнечный нагрев. Характеристика знойности погоды. Зависит от высоты солнца над горизонтом, облачности и скорости ветра. Ночью, в пасмурную погоду, а также при ветре 12 м/с и более поправка равна нулю.
P - Атмосферное давление - приведенное к уровню моря атмосферное давление.
Po - Атмосферное давление - измеренное на уровне метеостанции атмосферное давление.
Tmin - Минимальная температура - минимум температуры воздуха на высоте 2 м над землей.
Tmax - Максимальная температура - максимум температуры воздуха на высоте 2 м над землей.
R - Количество осадков - Количество выпавших осадков за период времени, мм. При наведении курсора мыши на число - период времени, за который выпало указанное количество осадков.
R24 - Количество осадков - Количество выпавших осадков за 24 часа, мм.
S - Снежный покров - Высота снежного покрова, см. При наведении курсора мыши на число - состояние снежного покрова и степень покрытия местности в баллах.